When you browse on this site, cookies collect data to enhance your experience and personalize the content and advertising you see.
Visit our Privacy Policy to learn more. By continuing to use the site, you agree to this use of cookies and data.
  • In Spain
  • List of Countries
  • For 7 days
  • Water Temperature
  • Satellite Maps
  • Weather Map
  • Weather Widgets
  • user-avatar
    Login

    Hourly Weather Lezhe

    Today, 20 January, Sunday

    Time Temperature Precipitation Wind Pressure Humidity
    00:00 +6°C° 0.1 mm 2 mps 735 mmHg 80%
    01:00 +6°C° 0.1 mm 2 mps 735 mmHg 80%
    02:00 +6°C° 0.7 mm 2 mps 734 mmHg 81%
    03:00 +6°C° 0.7 mm 1 mps 734 mmHg 82%
    04:00 +6°C° 0.7 mm 1 mps 734 mmHg 84%
    05:00 +6°C° 2.1 mm 1 mps 734 mmHg 86%
    06:00 +6°C° 2.1 mm 1 mps 734 mmHg 87%
    07:00 +5°C° 2.1 mm 2 mps 734 mmHg 89%
    08:00 +6°C° 0.3 mm 2 mps 735 mmHg 88%
    09:00 +6°C° 0.3 mm 2 mps 735 mmHg 87%
    10:00 +7°C° 0.3 mm 2 mps 735 mmHg 86%
    11:00 +8°C° 0 mm 2 mps 735 mmHg 84%
    12:00 +8°C° 0 mm 2 mps 735 mmHg 82%
    13:00 +9°C° 0 mm 2 mps 735 mmHg 80%
    14:00 +10°C° 0.1 mm 1 mps 735 mmHg 82%
    15:00 +9°C° 0.1 mm 1 mps 735 mmHg 84%
    16:00 +9°C° 0.1 mm 1 mps 735 mmHg 87%
    17:00 +8°C° 0 mm 1 mps 735 mmHg 88%
    18:00 +6°C° 0 mm 2 mps 735 mmHg 89%
    19:00 +6°C° 0 mm 2 mps 735 mmHg 90%
    20:00 +5°C° 0 mm 2 mps 736 mmHg 88%
    21:00 +5°C° 0 mm 2 mps 736 mmHg 86%
    22:00 +5°C° 0 mm 2 mps 736 mmHg 85%
    23:00 +5°C° 0 mm 2 mps 736 mmHg 83%

    Tomorrow, 21 January, Monday

    Time Temperature Precipitation Wind Pressure Humidity
    00:00 +5°C° 0 mm 2 mps 736 mmHg 82%
    01:00 +4°C° 0 mm 2 mps 736 mmHg 80%
    02:00 +4°C° 0 mm 2 mps 736 mmHg 79%
    03:00 +4°C° 0 mm 2 mps 736 mmHg 78%
    04:00 +4°C° 0 mm 2 mps 736 mmHg 77%
    05:00 +4°C° 0 mm 2 mps 736 mmHg 77%
    06:00 +4°C° 0 mm 2 mps 736 mmHg 76%
    07:00 +4°C° 0 mm 2 mps 736 mmHg 75%
    08:00 +5°C° 0 mm 2 mps 737 mmHg 73%
    09:00 +7°C° 0 mm 2 mps 737 mmHg 70%
    10:00 +8°C° 0 mm 2 mps 737 mmHg 67%
    11:00 +9°C° 0 mm 2 mps 737 mmHg 65%
    12:00 +10°C° 0 mm 2 mps 737 mmHg 62%
    13:00 +12°C° 0 mm 2 mps 736 mmHg 60%
    14:00 +10°C° 0 mm 2 mps 736 mmHg 64%
    15:00 +9°C° 0 mm 2 mps 736 mmHg 69%
    16:00 +8°C° 0 mm 2 mps 736 mmHg 73%
    17:00 +7°C° 0 mm 2 mps 736 mmHg 75%
    18:00 +7°C° 0 mm 2 mps 737 mmHg 77%
    19:00 +5°C° 0 mm 3 mps 737 mmHg 78%
    20:00 +4°C° 0 mm 3 mps 737 mmHg 78%
    21:00 +4°C° 0 mm 3 mps 737 mmHg 78%
    22:00 +4°C° 0 mm 3 mps 737 mmHg 77%
    23:00 +4°C° 0 mm 3 mps 737 mmHg 77%

    Day after tomorrow, 22 January, Tuesday

    Time Temperature Precipitation Wind Pressure Humidity
    00:00 +4°C° 0 mm 3 mps 736 mmHg 77%
    01:00 +4°C° 0 mm 3 mps 736 mmHg 77%
    02:00 +4°C° 0.1 mm 3 mps 736 mmHg 77%
    03:00 +4°C° 0.1 mm 3 mps 735 mmHg 78%
    04:00 +4°C° 0.1 mm 3 mps 735 mmHg 78%
    05:00 +4°C° 0.1 mm 3 mps 734 mmHg 78%
    06:00 +4°C° 0.1 mm 3 mps 734 mmHg 78%
    07:00 +4°C° 0.1 mm 3 mps 734 mmHg 77%
    08:00 +5°C° 0.2 mm 3 mps 734 mmHg 76%
    09:00 +7°C° 0.2 mm 3 mps 733 mmHg 75%
    10:00 +7°C° 0.2 mm 3 mps 733 mmHg 74%
    11:00 +8°C° 0.1 mm 3 mps 732 mmHg 75%
    12:00 +8°C° 0.1 mm 3 mps 732 mmHg 75%
    13:00 +8°C° 0.1 mm 3 mps 731 mmHg 76%
    14:00 +8°C° 0.1 mm 3 mps 730 mmHg 77%
    15:00 +8°C° 0.1 mm 2 mps 730 mmHg 77%
    16:00 +8°C° 0.1 mm 2 mps 729 mmHg 78%
    17:00 +7°C° 0.3 mm 2 mps 729 mmHg 79%
    18:00 +7°C° 0.3 mm 2 mps 728 mmHg 79%
    19:00 +7°C° 0.3 mm 2 mps 728 mmHg 80%
    20:00 +7°C° 0.6 mm 2 mps 728 mmHg 80%
    21:00 +7°C° 0.6 mm 2 mps 727 mmHg 81%
    22:00 +6°C° 0.6 mm 2 mps 727 mmHg 81%
    23:00 +6°C° 0.4 mm 2 mps 726 mmHg 81%

    23 January, Wednesday

    Time Temperature Precipitation Wind Pressure Humidity
    00:00 +5°C° 0.4 mm 3 mps 725 mmHg 82%
    01:00 +5°C° 0.4 mm 3 mps 725 mmHg 82%
    02:00 +5°C° 1.8 mm 3 mps 724 mmHg 84%
    03:00 +5°C° 1.8 mm 3 mps 724 mmHg 86%
    04:00 +5°C° 1.8 mm 3 mps 723 mmHg 88%
    05:00 +5°C° 1.5 mm 4 mps 723 mmHg 89%
    06:00 +5°C° 1.5 mm 5 mps 723 mmHg 91%
    07:00 +5°C° 1.5 mm 6 mps 724 mmHg 92%
    08:00 +6°C° 1.9 mm 5 mps 724 mmHg 91%
    09:00 +6°C° 1.9 mm 4 mps 725 mmHg 90%
    10:00 +7°C° 1.9 mm 3 mps 725 mmHg 88%
    11:00 +6°C° 0.9 mm 4 mps 725 mmHg 84%
    12:00 +7°C° 0.9 mm 4 mps 725 mmHg 80%
    13:00 +7°C° 0.9 mm 4 mps 725 mmHg 76%
    14:00 +7°C° 0.6 mm 4 mps 725 mmHg 77%
    15:00 +7°C° 0.6 mm 4 mps 725 mmHg 77%
    16:00 +6°C° 0.6 mm 4 mps 725 mmHg 78%
    17:00 +6°C° 0.2 mm 4 mps 725 mmHg 79%
    18:00 +5°C° 0.2 mm 3 mps 726 mmHg 79%
    19:00 +4°C° 0.2 mm 3 mps 726 mmHg 80%
    20:00 +4°C° 0 mm 3 mps 726 mmHg 79%
    21:00 +4°C° 0 mm 3 mps 726 mmHg 78%
    22:00 +3°C° 0 mm 3 mps 726 mmHg 77%
    23:00 +3°C° 0 mm 3 mps 725 mmHg 76%

    24 January, Thursday

    Time Temperature Precipitation Wind Pressure Humidity
    00:00 +3°C° 0 mm 3 mps 725 mmHg 76%
    01:00 +3°C° 0 mm 3 mps 725 mmHg 75%
    02:00 +3°C° 0 mm 3 mps 724 mmHg 73%
    03:00 +3°C° 0 mm 4 mps 723 mmHg 72%
    04:00 +3°C° 0 mm 4 mps 722 mmHg 70%
    05:00 +3°C° 0 mm 4 mps 722 mmHg 68%
    06:00 +3°C° 0 mm 3 mps 722 mmHg 66%
    07:00 +3°C° 0 mm 3 mps 722 mmHg 65%
    08:00 +4°C° 0.1 mm 3 mps 722 mmHg 66%
    09:00 +5°C° 0.1 mm 3 mps 721 mmHg 67%
    10:00 +5°C° 0.1 mm 3 mps 721 mmHg 68%
    11:00 +7°C° 0 mm 3 mps 721 mmHg 69%
    12:00 +8°C° 0 mm 3 mps 720 mmHg 69%
    13:00 +7°C° 0 mm 4 mps 720 mmHg 70%
    14:00 +7°C° 0 mm 4 mps 720 mmHg 71%
    15:00 +8°C° 0 mm 3 mps 719 mmHg 73%
    16:00 +7°C° 0 mm 3 mps 719 mmHg 75%
    17:00 +5°C° 0 mm 3 mps 719 mmHg 75%
    18:00 +5°C° 0 mm 4 mps 719 mmHg 76%
    19:00 +4°C° 0 mm 4 mps 720 mmHg 77%
    20:00 +4°C° 1.8 mm 3 mps 720 mmHg 82%
    21:00 +5°C° 1.8 mm 2 mps 720 mmHg 87%
    22:00 +5°C° 1.8 mm 2 mps 721 mmHg 92%
    23:00 +5°C° 1.2 mm 2 mps 721 mmHg 91%

    25 January, Friday

    Time Temperature Precipitation Wind Pressure Humidity
    00:00 +5°C° 1.2 mm 2 mps 721 mmHg 91%
    01:00 +5°C° 1.2 mm 2 mps 721 mmHg 90%
    02:00 +4°C° 0.8 mm 2 mps 722 mmHg 90%
    03:00 +4°C° 0.8 mm 2 mps 722 mmHg 89%
    04:00 +4°C° 0.8 mm 2 mps 722 mmHg 89%
    05:00 +4°C° 0.3 mm 2 mps 722 mmHg 88%
    06:00 +4°C° 0.3 mm 2 mps 723 mmHg 86%
    07:00 +4°C° 0.3 mm 2 mps 723 mmHg 85%
    08:00 +5°C° 0 mm 2 mps 724 mmHg 84%
    09:00 +6°C° 0 mm 2 mps 724 mmHg 82%
    10:00 +6°C° 0 mm 2 mps 725 mmHg 81%
    11:00 +7°C° 0 mm 2 mps 725 mmHg 78%
    12:00 +8°C° 0 mm 2 mps 725 mmHg 75%
    13:00 +8°C° 0 mm 2 mps 725 mmHg 73%
    14:00 +8°C° 0 mm 2 mps 725 mmHg 75%
    15:00 +7°C° 0 mm 2 mps 725 mmHg 76%
    16:00 +7°C° 0 mm 3 mps 725 mmHg 78%
    17:00 +6°C° 0 mm 2 mps 725 mmHg 78%
    18:00 +5°C° 0 mm 2 mps 726 mmHg 79%
    19:00 +4°C° 0 mm 2 mps 726 mmHg 79%
    20:00 +4°C° 0 mm 2 mps 726 mmHg 78%
    21:00 +3°C° 0 mm 2 mps 727 mmHg 78%
    22:00 +3°C° 0 mm 2 mps 727 mmHg 77%
    23:00 +3°C° 0 mm 2 mps 727 mmHg 77%
    Show more